Location: Mimeure
(47.1515°N, 4.4964°E)
Time: 14:47:53
(UTC+00:00)

Daily predictions for brighter satellites

Satellite Brightness Start Highest point End
(mag) Time Altitude Azimuth Time Altitude Azimuth Time Altitude Azimuth
ADEOS Rocket 3.4 17:04:41 10° NNE 17:10:46 80° WNW 17:17:30 10° SSW
BREEZE-M R/B 3.1 17:08:40 10° WSW 17:11:51 78° SSE 17:17:59 10° ENE
USA 229 DEB 4.0 17:05:30 10° NW 17:12:48 82° NE 17:20:30 10° SE
USA 229 4.0 17:05:36 10° NW 17:12:54 82° NE 17:20:35 10° SE
NOAA 12 4.2 17:08:41 10° SSE 17:13:59 85° WSW 17:19:19 10° NNW
Cosmos 1455 Rocket 3.7 17:10:01 10° SSW 17:14:17 59° WNW 17:18:34 10° N
Cosmos 2228 4.4 17:11:30 10° SE 17:14:22 18° E 17:17:16 10° NE
Cosmos 1939 Rocket 3.4 17:13:38 10° SE 17:17:21 37° ENE 17:21:03 10° N
Cosmos 1356 Rocket 3.7 17:13:54 10° SSE 17:17:56 46° E 17:22:03 10° NNE
Cosmos 1420 Rocket 4.1 17:12:55 10° S 17:18:08 64° ESE 17:23:20 10° NNE
ERS-2 2.1 17:15:28 10° NNE 17:19:07 82° ESE 17:22:45 10° SSW
CZ-4C R/B 4.2 17:15:19 10° WNW 17:19:41 22° NNW 17:24:40 10° NNE
Cosmos 1954 Rocket 4.2 17:15:03 10° NNW 17:20:16 82° WSW 17:25:28 10° SSE
Cosmos 1703 3.5 17:18:07 10° N 17:21:55 45° ENE 17:25:42 10° SSE
USA 281 4.1 17:15:48 10° S 17:22:12 55° WSW 17:28:40 10° NNW
Cosmos 1908 3.6 17:20:39 10° SSE 17:24:15 42° E 17:27:55 10° NNE
CZ-4B R/B 1.2 17:20:58 10° NNE 17:24:19 81° E 17:27:32 10° S
Cosmos 1470 4.5 17:21:01 10° SW 17:24:36 36° WNW 17:28:13 10° N
NOSS 3-1 (A) 4.1 17:18:21 10° NW 17:25:50 81° NE 17:34:31 10° SE
Cosmos 1943 Rocket 3.2 17:21:22 10° SW 17:26:43 47° NW 17:32:04 10° NNE
CZ-4 R/B 2.2 17:23:24 10° SE 17:26:45 27° ENE 17:30:05 10° N
Cosmos 2279 Rocket 4.3 17:21:13 10° SSW 17:27:28 77° W 17:33:45 10° N
CZ-2D R/B 3.9 17:24:05 10° SE 17:27:34 34° ENE 17:31:03 10° N
Okean O Rocket 2.5 17:23:22 10° S 17:27:39 54° W 17:31:57 10° NNW
Cosmos 1655 Rocket 4.1 17:21:19 10° N 17:27:45 81° E 17:34:10 10° S
Cosmos 2227 Rocket 3.9 17:24:47 10° N 17:28:05 15° NE 17:31:22 10° ENE
IRS-1C Rocket 4.2 17:23:23 10° SSE 17:28:32 59° ENE 17:33:44 10° N
FengYun 1-2 T 4.3 17:23:02 10° SSE 17:28:43 89° ENE 17:34:25 10° NNW
SMAP 4.1 17:26:17 10° S 17:30:49 52° W 17:35:23 10° NNW
Cosmos 1741 Rocket 4.2 17:26:33 10° NNW 17:31:42 51° ENE 17:36:46 10° SE
USA 305 3.9 17:30:23 10° W 17:34:27 39° NNW 17:38:30 10° NE
ERBS 2.4 17:31:34 10° WSW 17:34:54 75° NW 17:38:16 10° NE
Cosmos 2263 4.4 17:29:22 10° SSW 17:35:10 81° WNW 17:40:59 10° NNE
ATLAS 5 CENTAUR R/B 2.2 17:32:11 10° WSW 17:36:12 55° NW 17:40:48 10° NE
COSMO-SKYMED 1 2.7 17:33:53 10° NNE 17:38:08 51° E 17:42:22 10° S
ATLAS 2AS CENTAUR R/B 4.5 17:34:11 10° NW 17:40:10 23° N 17:45:56 10° NE
Lacrosse 5 2.2 17:35:15 10° WSW 17:40:18 66° NNW 17:45:22 10° NE
USA 306 4.0 17:36:28 10° W 17:40:29 37° NNW 17:44:16 11° NE
NOSS 2-1 (C) 3.4 17:37:57 10° SW 17:41:15 61° NW 17:44:48 10° NE
Cosmos 2056 Rocket 4.5 17:36:44 10° SW 17:41:47 49° WNW 17:46:48 10° NNE
USA 276 2.5 17:39:07 10° WNW 17:42:18 61° SSW 17:45:14 11° SE
H-2A R/B 2.9 17:39:57 10° SE 17:44:37 31° ENE 17:49:22 10° N
USA 215 3.7 17:40:04 12° E 17:45:50 49° NNE 17:52:05 10° NW
SAR-Lupe-4 3.5 17:42:50 10° NNE 17:46:27 88° WNW 17:50:02 10° SSW
NOSS 2-1 (D) 3.6 17:43:12 10° SW 17:46:28 54° NW 17:49:59 10° NNE
ARGOS 4.1 17:42:55 10° ESE 17:47:18 26° ENE 17:51:44 10° N
Okean-O 2.7 17:43:56 10° SSE 17:48:15 53° ENE 17:52:35 10° N
Cosmos 1328 3.7 17:45:21 10° N 17:49:19 75° E 17:53:15 10° SSE
COSMOS 2487 2.5 17:47:12 10° NNW 17:50:35 51° ENE 17:53:56 10° SE
SeaSat 1 2.8 17:46:26 10° ESE 17:51:04 43° NE 17:55:44 10° NNW
Cosmos 1850 Rocket 4.0 17:46:11 10° NNW 17:51:30 77° ENE 17:56:49 10° SSE
H-2A R/B 4.5 17:49:26 10° N 17:52:48 23° WNW 17:56:05 10° WSW
CSL-04 Rocket 4.2 17:48:10 10° SE 17:53:17 39° ENE 17:58:22 10° N
Cosmos 1825 Rocket 3.5 17:54:07 10° N 17:58:35 64° ENE 18:02:59 10° SSE
Cosmos 1452 Rocket 3.5 17:53:19 10° SSW 17:58:35 87° ESE 18:03:54 10° NNE
Cosmos 1300 3.2 17:55:46 10° SSE 17:59:14 34° E 18:02:43 10° NNE
HJ-1C 4.4 17:58:45 24° E 17:59:16 25° ENE 18:02:05 10° NNE
YAOGAN 1 2.6 17:55:15 10° SSE 17:59:27 53° ENE 18:03:42 10° N
Cosmos 2098 Rocket 4.5 17:56:42 10° NNW 17:59:53 30° W 18:02:37 10° SSW
CZ-4 R/B 4.4 17:56:28 10° SSE 18:00:37 88° ENE 18:04:48 10° NNW
Cosmos 304 Rocket 4.3 17:58:57 10° SSW 18:03:41 62° WNW 18:08:27 10° NNE
Cosmos 1400 Rocket 4.1 18:03:00 10° SE 18:12:02 - NNE 18:05:30 23° ESE
Cosmos 1656 Rocket 4.2 18:00:55 10° SW 18:06:24 61° WNW 18:12:00 10° NNE
CZ-2C R/B 3.3 18:01:46 10° SSE 18:07:31 64° ENE 18:13:13 10° N
Meteor 2-21 Rocket 4.4 18:01:29 10° N 18:07:41 72° ENE 18:13:49 10° SSE
Cosmos 2297 Rocket 3.1 18:05:07 10° NNW 18:10:04 30° NE 18:12:08 24° E
Cosmos 2369 Rocket 3.7 18:05:01 10° WSW 18:10:12 36° NW 18:15:28 10° NNE
Cosmos 2266 Rocket 4.5 18:04:38 10° NNW 18:10:43 64° W 18:16:53 10° S
Cosmos 1689 Rocket 2.8 18:08:29 10° N 18:11:21 54° WNW 18:14:10 10° SSW
SJ-11-01 4.4 18:08:10 10° SE 18:12:39 49° ENE 18:17:10 10° N
BREEZE-M R/B 3.8 18:03:47 10° W 18:12:49 69° N 18:14:14 31° ENE
Cosmos 1758 Rocket 3.9 18:09:25 10° NNW 18:13:51 69° W 18:18:12 10° S
In-Cosmos 22 Rocket 4.5 18:11:19 10° N 18:16:20 40° ENE 18:19:41 19° SE
Cosmos 1726 Rocket 3.5 18:12:58 10° S 18:17:13 60° E 18:21:31 10° NNE
Cosmos 1818 4.0 18:13:22 10° SW 18:18:45 63° NW 18:24:11 10° NNE
USA 307 4.1 18:16:51 10° WNW 18:20:46 33° N 18:22:42 22° NE
PSLV R/B 4.4 18:18:30 10° N 18:22:40 64° WNW 18:26:48 10° SSW
Helios 1A Rocket 3.7 18:20:04 10° S 18:24:07 55° WSW 18:28:11 10° NNW
CSL-04 Debris 4.1 18:19:16 10° SSE 18:24:39 71° ENE 18:30:05 10° N
USA 308 4.1 18:21:29 10° WNW 18:25:22 32° N 18:27:06 24° NE
SKYMED 2 4.4 18:21:59 10° N 18:26:13 51° WNW 18:30:25 10° SSW
Ariane Rocket 3.9 18:26:42 28° ENE 18:26:49 28° ENE 18:31:08 10° N
Cosmos 2219 3.7 18:23:44 10° NNW 18:29:10 41° NE 18:30:54 33° E
Timation 2 Rocket 4.1 18:23:23 10° NNW 18:29:52 63° ENE 18:34:14 23° SE
Cosmos 1606 Rocket 3.6 18:25:38 10° SSW 18:29:58 80° WNW 18:34:22 10° N
FALCON 9 DEB 4.0 18:26:52 10° W 18:30:09 43° NNW 18:31:02 35° NNE
USA 116 4.3 18:25:31 10° NNE 18:30:39 73° ESE 18:35:59 10° S
SL-4 R/B 2.0 18:28:40 10° W 18:32:13 63° NNW 18:33:10 44° NE
Geosat 4.1 18:27:12 10° NNE 18:32:15 76° WNW 18:37:16 10° SW
SL-08 RB Rocket 4.1 18:33:52 38° ENE 18:33:52 38° ENE 18:37:54 10° N
Cosmos 44 4.3 18:33:26 10° S 18:35:52 26° SSE 18:35:52 26° SSE
Cosmos 1340 3.0 18:38:41 10° N 18:41:40 47° NNE 18:41:40 47° NNE
SL-08 ROCKET BODY 4.4 18:36:50 10° N 18:42:47 57° ENE 18:46:19 25° SSE
S3M 4.1 18:40:03 10° SSE 18:45:48 46° E 18:51:36 10° NNE
Cosmos 2058 4.5 18:42:47 10° N 18:44:32 22° NNE 18:44:32 22° NNE
Cosmos 2058 Rocket 2.9 18:43:02 10° S 18:47:29 79° E 18:51:59 10° NNE
CRYOSAT 2 4.2 18:43:33 10° N 18:48:24 65° E 18:53:13 10° S
Cosmos 1331 Rocket 3.9 18:45:58 10° SSW 18:51:09 84° WNW 18:56:20 10° NNE
Cosmos 2228 4.1 18:47:31 10° SSW 18:51:34 44° WNW 18:55:40 10° N
Meteor 2-15 4.4 18:48:21 10° S 18:54:20 57° E 19:00:20 10° NNE
Cosmos 1953 Rocket 4.4 18:50:43 10° NNW 18:54:58 50° W 18:59:13 10° SSW
Cosmos 292 Rocket 3.6 18:52:19 10° SSW 18:57:05 83° ESE 18:59:05 36° NNE
MOS 1 Rocket 3.3 18:54:40 10° N 18:59:09 78° WNW 19:03:52 10° SSW
Cosmos 1417 Rocket 4.3 18:53:36 10° S 18:59:47 72° E 19:06:04 10° NNE
CZ-4 R/B 3.4 18:58:21 10° SSW 19:01:44 27° W 19:05:06 10° NW
NOSS 2-2 (E) 4.4 18:56:22 10° NW 19:01:58 78° NE 19:04:15 46° SE
Aureole 3 Rocket 3.1 19:01:52 10° SSW 19:05:13 62° WNW 19:09:36 10° N
MetOp-A 4.4 19:06:21 50° NE 19:06:21 50° NE 19:10:56 10° N
CZ-4C R/B 4.3 19:05:59 10° NW 19:10:40 21° NNE 19:12:49 18° NE
Cosmos 2227 Rocket 2.1 19:07:40 10° NNW 19:13:12 64° NE 19:13:12 64° NE
Cosmos 1486 Rocket 4.1 19:08:13 10° NNW 19:13:00 60° NNE 19:13:00 60° NNE
USA 305 4.2 19:11:16 10° WNW 19:14:39 32° N 19:14:39 32° N
Cosmos 1302 Rocket 3.9 19:11:06 10° SSW 19:16:04 80° S 19:16:04 80° S
NOSS 2-2 (D) 4.4 19:12:22 10° NW 19:17:53 83° NE 19:19:03 63° SE
Cosmos 1553 Rocket 4.1 19:13:02 10° SSW 19:19:25 76° W 19:25:46 10° N
Cosmos 1892 4.4 19:15:53 10° NNW 19:17:51 28° NNW 19:17:51 28° NNW
USA 306 4.3 19:17:18 10° WNW 19:20:24 31° NNW 19:20:24 31° NNW
ATLAS 5 CENTAUR R/B 4.1 19:19:06 10° WNW 19:21:59 16° NNW 19:24:08 13° N
H-2A R/B 3.2 19:18:49 10° SSW 19:23:52 43° W 19:29:03 10° NNW
Lacrosse 5 3.3 19:19:36 10° WNW 19:24:02 29° NNW 19:24:50 28° N
Cosmos 968 Rocket 3.8 19:20:25 10° NNW 19:24:40 57° N 19:24:40 57° N
ARGOS 3.8 19:23:46 21° S 19:27:14 53° W 19:32:35 10° NNW
USA 215 3.2 19:27:26 61° SSE 19:28:39 79° SW 19:35:13 10° NW
SeaSat 1 4.0 19:25:37 17° SSW 19:28:40 32° WSW 19:33:05 10° NW
Cosmos 2263 Rocket 4.1 19:27:19 10° N 19:29:39 18° NNE 19:29:39 18° NNE
CZ-2C R/B 4.0 19:26:29 10° NNE 19:29:05 29° NNE 19:29:05 29° NNE
ATLAS 2AS CENTAUR R/B 3.8 19:26:59 10° NW 19:33:42 31° NNE 19:34:19 31° NNE
BREEZE-M R/B 4.2 19:30:10 10° WNW 19:35:01 74° N 19:35:53 66° ENE
Cosmos 1745 Rocket 4.4 19:37:15 10° NNW 19:43:24 62° W 19:45:39 39° SSW
Cosmos 2297 Rocket 2.8 19:48:54 10° NW 19:53:58 53° W 19:53:58 53° W
Ariane Rocket 4.4 20:06:55 36° WNW 20:06:55 36° WNW 20:10:28 10° NNW
Cosmos 2219 4.5 20:08:03 10° NW 20:12:52 36° W 20:12:52 36° W
CZ-4C R/B 4.3 20:54:41 10° NNW 20:57:59 27° NNW 20:57:59 27° NNW
ATLAS 2AS CENTAUR R/B 4.4 21:18:13 10° NW 21:21:44 30° NW 21:21:44 30° NW
